Location: Rock Island IL
(41.5000°N, 90.5500°W)
Time: 12:27:44
(UTC-05:00)

Daily predictions for brighter satellites

Satellite Brightness Start Highest point End
(mag) Time Altitude Azimuth Time Altitude Azimuth Time Altitude Azimuth
ATLAS 3B R/B 3.4 20:44:13 10° SW 20:51:22 65° NW 20:58:15 10° NNE
Envisat 4.1 20:48:16 10° S 20:53:08 47° W 20:58:03 10° NNW
Cosmos 2208 Rocket 4.0 20:50:03 10° SSW 20:55:14 84° ESE 21:00:26 10° NNE
Lacrosse 5 rocket 3.1 20:53:59 10° NNW 20:57:37 24° NNE 21:01:04 10° E
Aureole 2 Rocket 4.1 20:56:34 10° NNE 20:58:24 15° ENE 21:00:09 10° E
ARGOS 4.1 20:57:15 10° SE 21:02:01 33° ENE 21:06:49 10° N
Cosmos 1939 Rocket 3.5 21:00:07 10° S 21:04:11 61° W 21:08:18 10° NNW
NOAA 11 4.2 21:00:24 10° SSE 21:05:51 75° ENE 21:11:19 10° N
Cosmos 2322 Rocket 2.3 21:00:27 10° NNW 21:06:03 66° ENE 21:11:38 10° SSE
Cosmos 1242 Rocket 2.5 21:07:16 10° N 21:10:55 68° E 21:14:28 10° SSE
YAOGAN 6 4.0 21:07:59 10° SSW 21:11:27 38° W 21:14:55 10° NNW
SL-16 R/B 2.2 21:10:33 10° NNW 21:16:16 84° ENE 21:21:56 10° SSE
Thor Agena Rocket 4.4 21:14:06 10° N 21:19:17 57° WNW 21:24:21 10° SSW
Cosmos 2150 Rocket 4.3 21:15:56 10° N 21:21:13 54° ENE 21:25:55 12° SE
Cosmos 1340 Rocket 3.5 21:19:01 10° SSE 21:22:45 37° E 21:26:31 10° NNE
BREEZE-M R/B 3.9 21:21:04 10° W 21:25:23 41° NNW 21:28:02 10° NE
GPS 2-05 Rocket1 4.5 21:24:20 10° SSW 21:26:22 15° SSE 21:26:54 15° SSE
Cosmos 540 Rocket 4.2 21:23:46 10° SSE 21:28:19 32° E 21:32:54 10° NE
Spot 2 Rocket 3.9 21:26:38 10° S 21:31:37 64° WSW 21:36:38 10° NNW
Timation 2 Rocket 4.4 21:27:06 10° SW 21:33:00 65° WNW 21:39:05 10° NNE
Meteor 1-13 Rocket 4.3 21:29:08 10° S 21:35:01 79° E 21:41:00 10° NNE
Cosmos 1937 Rocket 3.6 21:31:34 10° NNW 21:36:43 79° WSW 21:41:33 12° SSE
Cosmos 1464 Rocket 4.2 21:31:03 10° SSE 21:37:11 54° E 21:43:22 10° NNE
Cosmos 1763 Rocket 3.7 21:33:51 10° SSW 21:39:10 79° WNW 21:44:28 10° NNE
SPOT 5 4.0 21:37:55 15° ESE 21:40:33 26° ENE 21:44:20 10° N
USA 245 4.3 21:38:32 18° ESE 21:40:42 34° ENE 21:44:46 10° N
Cosmos 1455 Rocket 3.1 21:36:32 10° N 21:40:53 65° E 21:44:20 16° SSE
Terra 3.8 21:38:21 10° E 21:40:58 15° ENE 21:43:34 10° NNE
Cosmos 2298 Rocket 4.0 21:37:10 10° NNW 21:42:29 88° W 21:46:58 15° SSE
Cosmos 841 Rocket 3.5 21:40:28 10° SSW 21:45:42 83° ESE 21:51:00 10° NNE
Abrixas rocket 4.1 21:47:13 10° W 21:50:10 31° NNW 21:53:06 10° NE
Cosmos 1975 Rocket 4.2 21:48:00 10° SSW 21:52:07 43° WNW 21:56:16 10° N
Helios 1A 3.9 21:51:27 21° ESE 21:53:32 34° ENE 21:57:19 10° N
Okean 2 4.4 21:52:12 22° SE 21:53:47 29° E 21:57:25 10° NNE
USA 32 4.0 21:49:36 10° N 21:54:52 89° E 21:59:24 14° S
Cosmos 2360 Rocket 2.2 21:49:29 10° NNW 21:55:09 72° ENE 21:58:58 21° SSE
BREEZE M DEB (TANK) 3.1 21:46:23 10° WNW 21:56:30 75° SW 21:58:38 25° SE
ISS -0.8 21:54:55 10° NW 21:57:09 17° NNW 21:59:23 10° NNE
Tiangong 2 1.4 21:54:58 10° W 21:58:07 66° N 22:00:15 19° E
Cosmos 2219 Rocket 3.7 21:53:43 10° N 21:58:14 24° NE 22:01:38 14° E
USA 234 3.3 21:52:43 10° NE 21:59:17 85° NW 22:05:52 10° SW
Shenzhou-11 Module 2.2 21:57:27 10° W 22:00:22 52° SSW 22:01:05 39° SSE
Meteor 2-20 Rocket 4.4 21:56:27 10° N 22:02:37 90° SSW 22:07:39 16° S
Cosmos 1356 Rocket 4.3 22:05:19 27° SE 22:06:37 34° E 22:10:31 10° NNE
Cosmos 1544 Rocket 4.0 22:03:59 10° NNW 22:08:22 61° W 22:11:44 17° S
Cosmos 292 Rocket 4.2 22:03:53 10° SSW 22:08:35 62° WNW 22:13:19 10° NNE
MetOp-A 4.4 22:04:53 15° S 22:09:19 66° WSW 22:14:40 10° NNW
ERS-1 Rocket 2.9 22:07:42 22° SSE 22:10:57 87° ENE 22:16:00 10° NNW
Helios 1B rocket 2.9 22:14:24 10° NNE 22:18:19 41° E 22:19:16 35° SE
Iridium 90 4.2 22:19:02 43° NNE 22:19:02 43° NNE 22:20:39 10° N
SJ 16-02 1.3 22:14:06 10° NNW 22:18:34 77° ENE 22:20:27 34° SSE
CZ-2C R/B 4.4 22:16:09 20° ESE 22:18:36 28° ENE 22:23:19 10° N
Cosmos 1356 4.3 22:15:40 13° SSW 22:18:38 48° WNW 22:22:01 10° N
Cosmos 2333 Rocket 3.2 22:19:45 10° N 22:24:56 34° ENE 22:27:41 22° ESE
Cosmos 1536 Rocket 3.9 22:21:54 15° SSW 22:25:29 64° W 22:29:56 10° N
CENTAUR R/B 3.2 22:20:48 10° SW 22:26:42 58° NW 22:33:33 10° NNE
Meteor 1-23 Rocket 4.4 22:21:52 10° SSW 22:27:19 72° W 22:32:53 10° N
Okean 1-7 Rocket 4.4 22:27:08 31° ESE 22:27:51 33° E 22:31:55 10° NNE
COSMOS 2428 3.0 22:22:29 10° NNW 22:28:04 55° ENE 22:30:38 31° SE
SPOT 1/Viking Rocket 3.5 22:26:20 31° SSE 22:28:50 77° ENE 22:34:00 10° N
IGS 5A 4.0 22:28:32 36° ESE 22:29:35 43° ENE 22:33:33 10° N
CZ-4C R/B 3.2 22:23:57 10° NNW 22:31:03 61° NE 22:35:47 26° ESE
Meteor 1-29 3.6 22:28:12 10° NNE 22:31:16 39° E 22:31:16 39° E
H-2A R/B 2.7 22:29:02 19° SSW 22:32:23 47° W 22:37:15 10° NNW
Aureole 2 Rocket 4.2 22:31:06 10° WNW 22:33:06 17° W 22:33:53 16° WSW
Cosmos 1125 Rocket 3.4 22:30:37 10° NNW 22:35:54 87° ENE 22:38:03 37° SSE
Lacrosse 5 rocket 1.5 22:32:56 10° NW 22:37:10 61° SW 22:38:05 47° S
Cosmos 1092 Rocket 4.1 22:36:47 10° N 22:43:08 67° E 22:45:54 35° SSE
Cosmos 2297 Rocket 3.7 22:44:24 20° E 22:44:24 20° E 22:47:55 10° NE
Nadezhda 4 Rocket 4.0 22:38:20 10° N 22:44:40 82° W 22:48:05 29° S
Cosmos 2227 Rocket 3.4 22:47:43 24° E 22:47:43 24° E 22:51:55 10° NE
Cosmos 2322 Rocket 4.4 22:46:02 10° WNW 22:49:28 17° W 22:52:54 10° SW
Cosmos 2058 Rocket 4.4 22:46:29 10° NNE 22:50:20 27° ENE 22:50:47 26° E
Cosmos 2322 4.1 22:44:50 10° NNW 22:50:26 56° WSW 22:52:56 32° S
Cosmos 2237 Rocket 3.3 22:49:09 10° N 22:54:16 33° ENE 22:56:28 25° E
CARTOSAT-1 3.4 22:56:13 58° SSE 22:57:03 89° ENE 23:01:23 10° NNW
Landsat 7 4.0 22:57:52 42° SSW 22:59:23 66° W 23:04:07 10° NNW
NOSS 0 Rocket 4.3 22:54:14 10° NNW 23:00:22 53° ENE 23:02:42 35° ESE
Cosmos 1066 Rocket 4.1 22:58:36 34° SSW 23:01:01 82° W 23:06:30 10° N
Cosmos 1025 Rocket 3.7 23:04:18 31° SW 23:06:03 50° WNW 23:10:20 10° N
Cosmos 2026 Rocket 3.9 23:05:18 10° N 23:11:27 70° E 23:13:15 47° SSE
Cosmos 2279 Rocket 4.2 23:14:02 45° SE 23:15:32 55° E 23:21:36 10° NNE
Cosmos 1544 3.4 23:12:01 10° NNW 23:15:35 62° W 23:15:35 62° W
Cosmos 1606 Rocket 3.4 23:11:26 10° N 23:15:54 88° ENE 23:16:17 75° SSE
Meteor 1-21 4.3 23:17:13 51° SE 23:18:06 57° E 23:23:37 10° NNE
Terra 2.0 23:17:13 52° SSW 23:18:09 65° WSW 23:22:53 10° NNW
SPOT 5 4.1 23:17:08 25° SW 23:18:31 30° W 23:22:32 10° NW
Cosmos 2219 3.3 23:16:32 29° SSW 23:19:33 77° WNW 23:25:20 10° NNE
Cosmos 1655 Rocket 4.3 23:14:20 10° N 23:20:36 55° ENE 23:22:14 43° SE
Cosmos 1766 3.3 23:18:04 10° N 23:21:51 77° NNE 23:21:51 77° NNE
Meteor 1-22 Rocket 4.0 23:19:28 10° N 23:24:50 84° W 23:25:51 59° S
Abrixas rocket 4.5 23:24:30 10° NW 23:27:11 23° N 23:28:17 19° NE
Cosmos 2142 Rocket 4.4 23:25:49 44° SSW 23:27:58 84° W 23:34:13 10° N
Iridium 4 Rocket 4.1 23:29:50 44° ESE 23:30:38 47° E 23:36:16 10° NNE
YAOGAN 11 4.5 23:32:52 53° WSW 23:33:14 55° W 23:37:42 10° NNW
ISS -0.8 23:32:36 10° NNW 23:34:36 15° N 23:36:36 10° NE
Tiangong 2 3.7 23:31:45 10° W 23:32:27 15° W 23:32:27 15° W
CZ-2C R/B 2.6 23:30:45 10° NNE 23:36:25 87° ESE 23:37:37 57° S
Mayak 0.7 23:34:57 10° NE 23:37:00 19° ENE 23:37:00 19° ENE
Cosmos 2360 Rocket 4.3 23:35:17 10° WNW 23:38:27 15° W 23:40:45 12° SW
Cosmos 2084 Rocket 4.0 23:35:57 10° NNW 23:39:32 47° NE 23:39:32 47° NE
Cosmos 1818 4.1 23:42:13 42° E 23:42:13 42° E 23:46:36 10° NE
Cosmos 1428 Rocket 4.4 23:35:56 10° N 23:42:05 88° W 23:43:29 57° S
Cosmos 2219 Rocket 2.5 23:37:04 10° NNW 23:42:29 52° WSW 23:43:21 47° SW
Cosmos 1758 4.1 23:39:40 10° N 23:43:02 46° NE 23:43:02 46° NE
H-2A R/B 3.9 23:43:33 20° ENE 23:43:42 20° ENE 23:46:48 10° NNE
Spot 4 3.7 23:48:10 82° SSW 23:48:22 85° WSW 23:53:15 10° NNW
Cosmos 1892 Rocket 4.1 23:51:39 47° W 23:51:53 48° W 23:56:06 10° N
Intercosmos 25 3.9 23:52:28 57° WNW 23:52:28 57° WNW 23:55:42 10° N
CZ-4 R/B 4.0 23:49:34 10° NNE 23:54:22 63° E 23:54:22 63° E
Cosmos 1842 4.0 23:56:15 49° NW 23:56:15 49° NW 23:59:36 10° N
